FW9818 Weather Reports


time (UTC)temp
C
wind
direction
speed
KPH
gust
KPH
rain 1hr
cm
rain 24hr
cm
rain mn
cm
humidity
%
barometer
mb
20260507161614 14 18 3.2 11.3 0.00 0.00 0.00 61 1015.5
20260507154620 14 9 4.8 9.7 0.00 0.00 0.00 59 1015.5
20260507153124 14 334 4.8 9.7 0.00 0.00 0.00 59 1015.5
20260507151621 15 340 4.8 11.3 0.00 0.00 0.00 57 1015.5
20260507150130 15 334 4.8 11.3 0.00 0.00 0.00 56 1015.4
20260507144604 15 29 1.6 6.4 0.00 0.00 0.00 54 1015.4
20260507143055 16 23 1.6 4.8 0.00 0.00 0.00 55 1015.3
20260507141515 16 138 0.0 9.7 0.00 0.00 0.00 56 1015.4
20260507140005 16 68 1.6 6.4 0.00 0.00 0.00 54 1015.4
20260507134539 16 136 1.6 8.0 0.00 0.00 0.00 54 1015.6
20260507133005 16 115 0.0 6.4 0.00 0.00 0.00 54 1015.6
20260507131547 16 120 0.0 8.0 0.00 0.00 0.00 52 1015.5
20260507130002 16 99 1.6 6.4 0.00 0.00 0.00 51 1015.6
20260507124506 16 144 3.2 9.7 0.00 0.00 0.00 52 1015.6
20260507123000 15 94 0.0 11.3 0.00 0.00 0.00 52 1015.5
20260507121540 15 115 4.8 11.3 0.00 0.00 0.00 54 1015.5
20260507120006 15 73 1.6 8.0 0.00 0.00 0.00 57 1015.4
20260507114538 15 355 4.8 9.7 0.00 0.00 0.00 58 1015.3
20260507113007 15 49 1.6 9.7 0.00 0.00 0.00 57 1015.5
20260507111510 15 91 1.6 12.9 0.00 0.00 0.00 52 1015.4
20260507110134 15 71 1.6 8.0 0.00 0.00 0.00 57 1015.5
20260507104503 15 73 3.2 9.7 0.00 0.00 0.00 59 1015.5
20260507103130 15 42 3.2 11.3 0.00 0.00 0.00 55 1015.6
20260507101627 15 6 3.2 11.3 0.00 0.00 0.00 58 1015.7
20260507094548 14 330 9.7 17.7 0.00 0.00 0.00 60 1015.5
20260507093101 14 47 4.8 9.7 0.00 0.00 0.00 62 1015.5
20260507091553 13 354 4.8 11.3 0.00 0.00 0.00 65 1015.5
20260507090010 12 324 9.7 14.5 0.00 0.00 0.00 67 1015.5
20260507084549 12 327 6.4 12.9 0.00 0.00 0.00 66 1015.4
20260507083012 12 36 1.6 9.7 0.00 0.00 0.00 68 1015.4
20260507081508 11 319 3.2 11.3 0.00 0.00 0.00 69 1015.4
20260507080131 11 320 4.8 9.7 0.00 0.00 0.00 71 1015.3
20260507074632 11 3 3.2 8.0 0.00 0.00 0.00 73 1015.3
20260507073121 11 333 0.0 4.8 0.00 0.00 0.00 74 1015.1
20260507071620 10 23 1.6 8.0 0.00 0.00 0.00 76 1015.1
20260507070124 10 316 1.6 8.0 0.00 0.00 0.00 77 1015.1
20260507064612 10 74 4.8 9.7 0.00 0.00 0.00 78 1015.0
20260507063113 10 41 3.2 8.0 0.00 0.00 0.00 79 1014.9
20260507061603 9 336 3.2 6.4 0.00 0.00 0.00 79 1014.8
20260507060114 9 343 3.2 4.8 0.00 0.00 0.00 80 1014.7
20260507054601 9 329 1.6 4.8 0.00 0.00 0.00 80 1014.5
20260507053106 9 323 1.6 3.2 0.00 0.00 0.00 80 1014.4
20260507051602 9 314 1.6 3.2 0.00 0.00 0.00 80 1014.4
20260507050022 8 295 1.6 3.2 0.00 0.00 0.00 80 1014.2
20260507044626 8 287 0.0 3.2 0.00 0.03 0.00 80 1014.0
20260507043133 8 285 0.0 3.2 0.00 0.03 0.00 79 1013.9
20260507041624 8 285 0.0 3.2 0.00 0.03 0.00 79 1013.8
20260507034557 9 305 0.0 3.2 0.00 0.03 0.00 78 1013.5
20260507033102 9 327 0.0 1.6 0.00 0.03 0.00 77 1013.5
20260507031608 9 327 0.0 3.2 0.00 0.03 0.00 77 1013.4
20260507030111 9 327 0.0 3.2 0.00 0.03 0.00 76 1013.4
20260507024632 9 327 0.0 3.2 0.00 0.05 0.00 77 1013.3
20260507023116 9 327 0.0 3.2 0.00 0.05 0.00 77 1013.3
20260507021613 9 327 0.0 0.0 0.00 0.05 0.00 76 1013.2
20260507020121 9 327 0.0 3.2 0.00 0.05 0.00 75 1013.0
20260507014616 9 327 0.0 3.2 0.00 0.05 0.00 74 1012.9
20260507013127 9 327 0.0 0.0 0.00 0.05 0.00 73 1012.9
20260507011536 9 327 0.0 0.0 0.00 0.05 0.00 73 1012.9
20260507010001 9 327 0.0 0.0 0.00 0.05 0.00 73 1012.9
20260507004543 9 327 0.0 3.2 0.00 0.05 0.00 73 1012.9
20260507003006 9 327 0.0 3.2 0.00 0.05 0.00 73 1012.8
20260507001502 9 332 0.0 3.2 0.00 0.05 0.00 73 1012.7
20260507000137 9 323 0.0 3.2 0.00 0.05 0.00 74 1012.8
20260506234509 9 323 0.0 3.2 0.00 0.05 0.00 74 1012.8
20260506233123 10 329 0.0 3.2 0.00 0.05 0.00 74 1012.6
20260506231514 10 324 0.0 3.2 0.00 0.05 0.00 74 1012.6
20260506230134 10 325 1.6 3.2 0.00 0.05 0.00 74 1012.5
20260506224508 10 343 0.0 3.2 0.00 0.10 0.00 74 1012.3
20260506223055 10 339 0.0 4.8 0.00 0.10 0.00 73 1012.2
20260506221518 10 335 1.6 3.2 0.00 0.10 0.00 73 1012.2
20260506214559 10 347 1.6 3.2 0.00 0.15 0.10 72 1012.1
20260506213142 10 355 1.6 4.8 0.00 0.15 0.10 71 1012.0
20260506211632 10 360 1.6 6.4 0.00 0.15 0.10 70 1011.9
20260506210103 10 339 3.2 6.4 0.00 0.15 0.10 69 1011.8
20260506204519 10 55 3.2 6.4 0.00 0.18 0.10 69 1011.7
20260506203007 10 29 3.2 8.0 0.00 0.18 0.10 68 1011.5
20260506201553 10 39 4.8 11.3 0.00 0.18 0.10 69 1011.4
20260506200132 10 45 1.6 6.4 0.00 0.18 0.10 70 1011.3
20260506194629 10 46 1.6 6.4 0.00 0.18 0.10 70 1011.3
20260506193124 10 46 3.2 14.5 0.00 0.18 0.10 70 1011.2
20260506191621 10 89 4.8 8.0 0.00 0.18 0.10 69 1011.0
20260506190120 10 347 4.8 17.7 0.00 0.18 0.10 68 1010.8
20260506184609 11 335 6.4 14.5 0.00 0.20 0.10 66 1010.6
20260506183110 11 85 6.4 16.1 0.00 0.20 0.10 65 1010.5
20260506181600 11 13 6.4 14.5 0.00 0.20 0.10 63 1010.3
20260506180015 12 28 12.9 20.9 0.00 0.20 0.10 60 1010.1
20260506174546 12 299 6.4 16.1 0.00 0.20 0.10 61 1009.8
20260506173138 12 18 6.4 17.7 0.00 0.20 0.10 58 1009.6
20260506171502 12 42 4.8 17.7 0.00 0.20 0.10 58 1009.4
20260506170128 13 4 12.9 20.9 0.00 0.20 0.10 55 1009.2
20260506164611 13 13 9.7 16.1 0.00 0.20 0.10 57 1009.0
20260506163116 13 331 9.7 19.3 0.00 0.20 0.10 58 1008.9